Location: Newark
(41.6500°N, 71.4833°W)
Time: 00:23:31
(UTC+00:00)

deb Explorer IX - Pass Details

Date: 26 January 2020
Orbit: 549 x 1099 km, 38.8° (Epoch: 27 February)

Event Time Altitude Azimuth Distance (km) Brightness Sun altitude
Rises 07:32:59 0° 279° (W) 3,905 - -50.1°
Reaches altitude 10° 07:36:08 10° 269° (W) 2,925 - -49.5°
Maximum altitude 07:42:13 30° 212° (SSW) 1,754 - -48.5°
Drops below altitude 10° 07:47:51 10° 153° (SSE) 2,696 - -47.5°
Sets 07:50:38 0° 143° (SE) 3,556 - -47.0°
